Location: Most
(50.5133°N, 13.6207°E)
Time: 11:02:21
(UTC+01:00)

Oscar 11 - Pass Details

Date: 01 December 2022
Orbit: 611 x 621 km, 97.6° (Epoch: 28 January)

Event Time Altitude Azimuth Distance (km) Brightness Sun altitude
Rises 05:07:40 0° 11° (NNE) 2,892 10.6 -24.0°
Reaches altitude 10° 05:09:52 10° 10° (N) 1,982 9.7 -23.6°
Enters shadow 05:13:11 51° 352° (N) 779 7.4 -23.1°
